Tracking 18980 objects as of 23-Feb-2018
HD Live streaming from Space Station
objects crossing your sky now

COSMOS 1038

Track COSMOS 1038 now!
10-day predictions
COSMOS 1038 is classified as:


NORAD ID: 11047
Int'l Code: 1978-091E
Perigee: 1,484.0 km
Apogee: 1,493.7 km
Inclination: 74.0 °
Period: 115.6 minutes
Semi major axis: 7859 km
RCS: 0.7055 m2 (medium)
Launch date: October 4, 1978
Source: Commonwealth of Independent States (former USSR) (CIS)
Launch site: PLESETSK MISSILE AND SPACE COMPLEX (PKMTR)
aabbcc
Your satellite tracking list
Your tracking list is empty




NASA's NSSDC Master Catalog

Two Line Element Set (TLE):
1 11047U 78091E   18053.53258970 +.00000000 +00000-0 +11110-3 0  9991
2 11047 074.0349 196.8883 0006205 341.8051 085.8255 12.45890185382661
Source of the keplerian elements: AFSPC